meum est propositum in taberna mori  **

METAR

Ronaldsway Weather

EGNS 190820Z 21017KT 9999 FEW022 09/03 Q0997 NOSIG

 

TAF EGNS 171700Z 1718/1822 18025G35KT 9999 FEW006 BKN010 TEMPO 1718/1722 5000 -RADZ BKN005

 

 

I know some visitors found the previous airfield selection useful but this website has been updated to use a WordPress framework and the previous version is not compatible with either the latest version of  PHP or WordPress itself. This plugin is under development and airfield selection may become a feature in the future. In the meantime if anyone has a locator that they use regularly you can email me and request its addition here.

www.iom.org © James Family